Location: Boiro
(42.6475°N, 8.8834°W)
Time: 19:00:49
(UTC+01:00)

Tiros 1 - Pass Details

Date: 13 December 2021
Orbit: 630 x 663 km, 48.4° (Epoch: 20 January)

Event Time Altitude Azimuth Distance (km) Brightness Sun altitude
Rises 16:47:26 0° 238° (WSW) 2,905 12.3 10.0°
Reaches altitude 10° 16:49:45 10° 238° (WSW) 2,000 11.9 9.7°
Maximum altitude 16:54:21 81° 151° (SSE) 641 7.4 9.1°
Drops below altitude 10° 16:58:59 10° 65° (ENE) 2,016 9.1 8.5°
Sets 17:01:19 0° 64° (ENE) 2,930 9.9 8.1°
